Flag for U.S.A. Weather past 2 weeks in Boise, Idaho, U.S.A.

Now
68 °F

Clear.


Feels Like: 68 °F
Forecast: 72 / 95 °F
Wind: 5 mph from Northeast

Location: Boise Air Terminal

Current Time: Jul 31, 2014 at 7:42:39 AM

Latest Report: Jul 31, 2014 at 6:53 AM


Visibility: 10 mi

Pressure: 30.02 "Hg

Humidity: 51%

Dew point: 49 °F

Location of BoiseLocation

Historic Weather in Boise — Graph

°F

Boise temperature yesterday

Maximum temperature yesterday: 95 °F (at 5:53 PM)
Minimum temperature yesterday: 73 °F (at 5:53 AM)
Average temperature yesterday: 82 °F

Past Weeks' High & Low Weather Summary

 TemperatureHumidityPressure
High100 °F (Jul 28, 4:53 PM)81% (Jul 23, 6:53 AM)30.16 "Hg (Jul 23, 6:53 AM)
Low52 °F (Jul 25, 6:53 AM)7% (Jul 18, 3:53 PM)29.63 "Hg (Jul 20, 6:53 PM)
Average79 °F31%29.92 "Hg
* Reported Jul 16 6:53 AM — Jul 31 6:53 AM, Boise, Weather by CustomWeather, © 2014

Note: Actual official high and low records may vary slightly from our data, if they occured in-between our weather recording intervals... More about our weather records

Advertising

Boise weather history for previous 24 hours

 ConditionsComfort  
Time TempWeatherWind HumidityBarometerVisibility
6:53 AM
Jul 31
68 °FClear.5 mph51%30.02 "Hg10 mi
5:53 AM70 °FClear.3 mph44%30.00 "Hg10 mi
4:53 AM72 °FClear.6 mph41%29.99 "Hg10 mi
3:53 AM74 °FClear.9 mph38%29.99 "Hg10 mi
2:53 AM76 °FClear.12 mph36%29.99 "Hg10 mi
1:53 AM77 °FClear.7 mph33%30.00 "Hg10 mi
12:53 AM78 °FClear.16 mph33%30.00 "Hg10 mi
11:53 PM
Jul 30
79 °FClear.6 mph31%29.99 "Hg10 mi
10:53 PM82 °FSunny.5 mph26%29.99 "Hg10 mi
9:53 PM83 °FSunny.5 mph26%29.98 "Hg10 mi
8:53 PM85 °FSunny.8 mph25%29.97 "Hg10 mi
7:53 PM85 °FSunny.18 mph26%29.97 "Hg10 mi
6:53 PM94 °FSunny.7 mph19%29.93 "Hg10 mi
5:53 PM95 °FSunny.8 mph19%29.94 "Hg10 mi
4:53 PM94 °FSunny.6 mph22%29.95 "Hg10 mi
3:53 PM92 °FSunny.6 mph24%29.96 "Hg10 mi
2:53 PM90 °FSunny.6 mph24%29.99 "Hg10 mi
1:53 PM89 °FSunny.5 mph23%30.01 "Hg10 mi
12:53 PM89 °FSunny.6 mph26%30.03 "Hg10 mi
11:53 AM81 °FSunny.6 mph39%30.05 "Hg10 mi
10:53 AM78 °FSunny.6 mph42%30.05 "Hg10 mi
9:53 AM74 °FSunny.5 mph53%30.06 "Hg10 mi
8:53 AM74 °FSunny.No wind48%30.05 "Hg10 mi
7:53 AM75 °FClear.6 mph45%30.02 "Hg10 mi
Weather by CustomWeather, © 2014

See weather overviewHow to use our weather pages